Date String (YYYY-MM-DD hh:mm:ss) UTC,Instrument flags,absolute air pressure of the measurement (hPa),sample flow rate (lpm),inlet stack bypass flow (lpm),air temperature of the measurement (°C),ambient temperature measured by the external sensor (°C),aerosol sample conditioner tube jacket temperature (°C),OPC LED temperature (°C),internal box temperature (°C),relative humidity of the measurement (%),span deviation,mass concentration of particles derived from Lorenz-Mie calculation of OPC scattering (μg/m³),mass concentration of particles derived from Lorenz-Mie calculation of OPC scattering (μg/m³),mass concentration of particles derived from Lorenz-Mie calculation of OPC scattering (μg/m³)
DateTimeUTC,F1_M11,P_M11,Q1_M11,Q2_M11,T1_M11,T2_M11,T3_M11,T4_M11,T5_M11,U1_M11,ZSPAN_M11,X2_M11,X0_M11,X1_M11
2023-12-13 07:00:00,SystemResetWarning,0837.5,5.00,000.00,019.1,018.2,000.0,027.4,020.3,22.0,0000.6,0010.50,0017.39,0009.62
2023-12-13 07:01:00,SystemResetWarning,0837.6,5.00,000.00,019.1,018.2,000.0,027.4,020.3,22.0,0000.1,0010.49,0016.88,0009.62
2023-12-13 07:02:00,SystemResetWarning,0837.5,5.01,000.00,019.1,018.2,000.0,027.4,020.3,22.1,0000.1,0010.50,0016.57,0009.62
2023-12-13 07:03:00,SystemResetWarning,0837.5,5.01,000.00,019.1,018.2,000.0,027.4,020.3,22.1,0000.1,0010.54,0016.83,0009.63
2023-12-13 07:04:00,SystemResetWarning,0837.5,5.00,000.00,019.1,018.2,000.0,027.4,020.3,22.0,0000.9,0010.55,0017.43,0009.64
2023-12-13 07:05:00,SystemResetWarning,0837.6,5.00,000.00,019.1,018.2,000.0,027.4,020.3,22.1,0001.1,0010.52,0017.59,0009.65
2023-12-13 07:06:00,SystemResetWarning,0837.5,5.00,000.00,019.1,018.2,000.0,027.4,020.3,22.1,0001.5,0010.49,0017.08,0009.63
2023-12-13 07:07:00,SystemResetWarning,0837.5,5.00,000.00,019.1,018.2,000.0,027.4,020.3,22.1,0001.7,0010.46,0017.27,0009.61
2023-12-13 07:08:00,SystemResetWarning,0837.5,5.00,000.00,019.1,018.2,000.0,027.4,020.3,22.1,0002.0,0010.47,0017.49,0009.61
2023-12-13 07:09:00,SystemResetWarning,0837.5,5.00,000.00,019.1,018.2,000.0,027.4,020.3,22.1,0002.0,0010.50,0018.07,0009.64
2023-12-13 07:10:00,SystemResetWarning,0837.5,5.01,000.00,019.1,018.2,000.0,027.4,020.3,22.0,0002.3,0010.54,0019.25,0009.66
2023-12-13 07:11:00,SystemResetWarning,0837.5,5.00,000.00,019.1,018.2,000.0,027.4,020.3,22.1,0002.5,0010.56,0019.52,0009.67
2023-12-13 07:12:00,SystemResetWarning,0837.5,5.00,000.00,019.1,018.2,000.0,027.4,020.3,22.1,0002.6,0010.57,0019.64,0009.69
2023-12-13 07:13:00,SystemResetWarning,0837.5,5.00,000.00,019.1,018.2,000.0,027.4,020.3,22.1,0002.5,0010.55,0019.12,0009.69
2023-12-13 07:14:00,SystemResetWarning,0837.5,5.00,000.00,019.1,018.2,000.0,027.4,020.3,22.1,0002.5,0010.56,0018.25,0009.70
2023-12-13 07:15:00,SystemResetWarning,0837.5,5.00,000.00,019.1,018.2,000.0,027.4,020.3,22.1,0002.3,0010.60,0017.73,0009.71
2023-12-13 07:16:00,SystemResetWarning,0837.5,5.00,000.00,019.1,018.2,000.0,027.4,020.3,22.1,0001.5,0010.62,0018.25,0009.71
2023-12-13 07:17:00,SystemResetWarning,0837.6,5.00,000.00,019.1,018.2,000.0,027.4,020.3,22.2,0000.6,0010.64,0018.45,0009.73
2023-12-13 07:18:00,SystemResetWarning,0837.6,5.00,000.00,019.1,018.2,000.0,027.4,020.3,22.1,0000.2,0010.64,0017.96,0009.75
2023-12-13 07:19:00,SystemResetWarning,0837.6,5.00,000.00,019.1,018.2,000.0,027.4,020.3,22.1,-000.3,0010.64,0017.70,0009.76
2023-12-13 07:20:00,SystemResetWarning,0837.6,5.00,000.00,019.1,018.2,000.0,027.4,020.3,22.1,-000.8,0010.63,0017.18,0009.77
2023-12-13 07:21:00,SystemResetWarning,0837.6,5.00,000.00,019.1,018.2,000.0,027.4,020.3,22.1,-001.2,0010.67,0016.24,0009.79
2023-12-13 07:22:00,SystemResetWarning,0837.6,5.00,000.00,019.1,018.2,000.0,027.4,020.3,22.1,-000.9,0010.63,0016.61,0009.82
2023-12-13 07:23:00,SystemResetWarning,0837.6,5.00,000.00,019.1,018.2,000.0,027.4,020.3,22.1,-001.1,0010.65,0016.59,0009.84
2023-12-13 07:24:00,SystemResetWarning,0837.6,5.00,000.00,019.1,018.2,000.0,027.4,020.3,22.1,-000.9,0010.71,0017.14,0009.88
2023-12-13 07:25:00,SystemResetWarning,0837.6,5.00,000.00,019.1,018.2,000.0,027.4,020.3,22.1,-001.0,0010.72,0017.68,0009.89
2023-12-13 07:26:00,SystemResetWarning,0837.6,4.99,000.00,019.1,018.2,000.0,027.4,020.3,22.2,-001.2,0010.72,0018.07,0009.90
2023-12-13 07:27:00,SystemResetWarning,0837.7,5.00,000.00,019.1,018.2,000.0,027.4,020.3,22.2,-000.9,0010.79,0017.54,0009.93
2023-12-13 07:28:00,SystemResetWarning,0837.6,5.00,000.00,019.1,018.2,000.0,027.3,020.3,22.2,-000.1,0010.81,0017.93,0009.95
2023-12-13 07:29:00,SystemResetWarning,0837.6,5.00,000.00,019.1,018.2,000.0,027.3,020.3,22.1,-000.0,0010.83,0018.08,0009.96
2023-12-13 07:30:00,SystemResetWarning,0837.6,5.00,000.00,019.1,018.2,000.0,027.3,020.3,22.1,0000.2,0010.84,0018.16,0009.97
2023-12-13 07:31:00,SystemResetWarning,0837.6,5.01,000.00,019.1,018.2,000.0,027.3,020.3,22.2,0000.9,0010.89,0018.21,0009.98
2023-12-13 07:32:00,SystemResetWarning,0837.7,5.00,000.00,019.1,018.2,000.0,027.3,020.3,22.2,0000.9,0010.90,0018.38,0010.00
2023-12-13 07:33:00,SystemResetWarning,0837.6,5.00,000.00,019.1,018.2,000.0,027.3,020.3,22.2,0000.8,0010.95,0018.05,0010.04
2023-12-13 07:34:00,SystemResetWarning,0837.6,5.00,000.00,019.1,018.2,000.0,027.3,020.3,22.2,0000.1,0010.96,0018.23,0010.06
2023-12-13 07:35:00,SystemResetWarning,0837.6,5.00,000.00,019.1,018.2,000.0,027.3,020.3,22.1,0001.2,0010.93,0018.06,0010.05
2023-12-13 07:36:00,SystemResetWarning,0837.6,5.01,000.00,019.1,018.2,000.0,027.3,020.3,22.1,0001.3,0010.92,0017.56,0010.05
2023-12-13 07:37:00,SystemResetWarning,0837.6,5.00,000.00,019.1,018.2,000.0,027.3,020.3,22.1,0001.4,0010.95,0017.10,0010.06
2023-12-13 07:38:00,SystemResetWarning,0837.6,5.00,000.00,019.1,018.2,000.0,027.3,020.3,22.1,0000.9,0010.96,0017.52,0010.06
2023-12-13 07:39:00,SystemResetWarning,0837.6,4.99,000.00,019.1,018.2,000.0,027.3,020.3,22.0,0000.5,0010.91,0017.23,0010.03
2023-12-13 07:40:00,SystemResetWarning,0837.6,4.99,000.00,019.1,018.2,000.0,027.3,020.3,22.0,0000.8,0010.91,0017.21,0009.99
2023-12-13 07:41:00,SystemResetWarning,0837.6,4.99,000.00,019.1,018.1,000.0,027.3,020.3,22.1,0000.8,0010.93,0017.43,0009.94
2023-12-13 07:42:00,SystemResetWarning,0837.7,5.00,000.00,019.1,018.1,000.0,027.3,020.3,22.1,0000.5,0010.87,0017.59,0009.89
2023-12-13 07:43:00,SystemResetWarning,0837.6,5.00,000.00,019.1,018.1,000.0,027.3,020.3,22.0,0000.3,0010.86,0017.52,0009.88
2023-12-13 07:44:00,SystemResetWarning,0837.6,5.00,000.00,019.1,018.1,000.0,027.3,020.3,22.0,-000.2,0010.90,0017.06,0009.87
2023-12-13 07:45:00,SystemResetWarning,0837.6,5.01,000.00,019.1,018.1,000.0,027.3,020.3,22.0,-001.1,0010.88,0017.26,0009.84
2023-12-13 07:46:00,SystemResetWarning,0837.6,5.00,000.00,019.1,018.1,000.0,027.3,020.3,22.0,-001.0,0010.87,0017.57,0009.83
2023-12-13 07:47:00,SystemResetWarning,0837.6,4.99,000.00,019.1,018.1,000.0,027.3,020.3,22.0,-000.6,0010.81,0017.39,0009.80
2023-12-13 07:48:00,SystemResetWarning,0837.6,5.00,000.00,019.1,018.2,000.0,027.3,020.3,22.0,-000.8,0010.76,0017.89,0009.78
2023-12-13 07:49:00,SystemResetWarning,0837.7,5.00,000.00,019.1,018.1,000.0,027.3,020.3,22.0,-000.7,0010.76,0017.58,0009.75
2023-12-13 07:50:00,SystemResetWarning,0837.7,5.00,000.00,019.1,018.1,000.0,027.3,020.3,22.0,-000.9,0010.78,0017.25,0009.75
2023-12-13 07:51:00,SystemResetWarning,0837.6,5.00,000.00,019.1,018.1,000.0,027.3,020.3,22.0,-000.7,0010.80,0017.74,0009.77
2023-12-13 07:52:00,SystemResetWarning,0837.7,5.00,000.00,019.1,018.1,000.0,027.3,020.3,22.0,-000.3,0010.80,0018.13,0009.81
2023-12-13 07:53:00,SystemResetWarning,0837.7,5.00,000.00,019.1,018.1,000.0,027.3,020.3,22.0,-000.6,0010.81,0018.72,0009.83
2023-12-13 07:54:00,SystemResetWarning,0837.7,5.00,000.00,019.1,018.1,000.0,027.3,020.3,22.0,-000.4,0010.78,0018.67,0009.81
2023-12-13 07:55:00,SystemResetWarning,0837.7,5.00,000.00,019.1,018.1,000.0,027.3,020.3,22.0,0000.2,0010.67,0018.38,0009.75
2023-12-13 07:56:00,SystemResetWarning,0837.7,5.02,000.00,019.1,018.1,000.0,027.3,020.3,21.9,0001.2,0010.66,0018.53,0009.75
2023-12-13 07:57:00,SystemResetWarning,0837.7,5.00,000.00,019.1,018.1,000.0,027.3,020.3,22.0,0001.0,0010.68,0018.59,0009.77
2023-12-13 07:58:00,SystemResetWarning,0837.7,4.99,000.00,019.1,018.1,000.0,027.3,020.3,22.0,0000.8,0010.72,0019.02,0009.76
2023-12-13 07:59:00,SystemResetWarning,0837.6,4.99,000.00,019.1,018.1,000.0,027.3,020.3,21.9,0000.7,0010.74,0018.96,0009.76
